Regional Weather Roundup
Issued by NWS

Home | Current Version | Previous Version | Text Only | Print | Product List | Glossary Off
Versions: 1 2 3 4 5 6 7 8 9 10 11 12 13 14 15 16 17 18 19 20 21 22 23 24 25 26 27 28 29 30 31 32 33 34 35 36 37 38 39 40 41 42 43 44 45 46 47 48 49 50

307
ASUS43 KMPX 200510
RWRMN
WEATHER ROUNDUP FOR MINNESOTA
NATIONAL WEATHER SERVICE TWIN CITIES/CHANHASSEN MN
1200 AM CDT WED SEP 20 2017


NOTE: "FAIR" INDICATES FEW OR NO CLOUDS BELOW 12,000 FEET WITH NO
SIGNIFICANT WEATHER AND/OR OBSTRUCTIONS TO VISIBILITY. N/A MEANS
CURRENT SKY AND/OR WEATHER CONDITIONS ARE NOT AVAILABLE.

MNZ060>063-068>070-200600-
   Twin Cities Metro

CITY           SKY/WX    TMP DP  RH WIND       PRES   REMARKS
TWIN CITIES    CLOUDY    72  64  76 SE13      29.66F
ST PAUL        CLOUDY    71  64  78 SE16G24   29.67S
CRYSTAL        CLOUDY    71  60  68 SE15      29.63F
BLAINE         CLOUDY    73  63  68 SE20G26   29.65F
LAKEVILLE      PTCLDY    70  63  78 SE10G21   29.65F
EDEN PRAIRIE   CLOUDY    72  63  73 SE17      29.63F
SOUTH ST PAUL  PTCLDY    71  62  72 SE12G21   29.67F
LAKE ELMO      MOCLDY    72  63  73 SE15G24   29.69F
$$
MNZ001>005-007-008-013>017-022>024-027-028-200600-
   Northwest Minnesota

CITY           SKY/WX    TMP DP  RH WIND       PRES   REMARKS
BEMIDJI        LGT RAIN  65  62  90 SE18G30   29.48F
HALLOCK        DRIZZLE   64  63  94 E22G30    29.36F
ROSEAU         CLOUDY    64  57  77 E3G9      29.47F
WARROAD        TSTM      63  59  88 E10       29.45F
THIEF RVR FALL RAIN      63  61  93 NE17      29.42F
CROOKSTON      DRIZZLE   61  61 100 E13       29.37F
FOSSTON        TSTM      61  59  94 SE6       29.49F
DETROIT LAKES  HVY RAIN  63  61  94 SW6       29.52F
MOORHEAD       CLOUDY    61  61 100 NE10      29.47R
PARK RAPIDS    CLOUDY    69  63  81 SE22G33   29.49R
MAHNOMEN       TSTM      59  59  99 E10       29.48F
$$
MNZ006-009>011-018-025>026-200600-
   North Central Minnesota

CITY           SKY/WX    TMP DP  RH WIND       PRES   REMARKS
BAUDETTE       LGT RAIN  63  60  90 E24G31    29.45F
FLAG ISLAND    LGT RAIN  63  61  94 E13G18    29.49F
INTL FALLS     CLOUDY    62  55  77 SE14      29.64F
WASKISH        CLOUDY    64  61  88 SE16G29   29.46F
BIG FORK       CLOUDY    66  57  72 SE17G28   29.61F
LONGVILLE      CLOUDY    66  61  82 SE10G21   29.55F
GRAND RAPIDS   CLOUDY    64  58  80 SE14G21   29.63F
CRANE LAKE     CLOUDY    57  55  94 SE3       29.72F
ORR            CLOUDY    63  54  72 SE9       29.65F
COOK           CLOUDY    64  55  72 SE9G17    29.69F
WALKER         CLOUDY    69  61  76 SE14G25   29.49F
$$
MNZ012-019>021-037-200600-
   Northeast Minnesota

CITY           SKY/WX    TMP DP  RH WIND       PRES   REMARKS
DULUTH         CLOUDY    60  58  92 E15       29.72F
ELY            CLOUDY    63  55  77 SE14      29.75F
HIBBING        CLOUDY    64  55  72 SE20G28   29.69F
EVELETH        CLOUDY    65  58  77 SE12G20   29.72F
DULUTH HARBOR  PTCLDY    64  61  88 NE12      29.73F
TWO HARBORS    CLOUDY    66  61  82 SE5       29.76S
SILVER BAY     MOCLDY    64  59  82 E9        29.78F
GRAND MARAIS     N/A     63  58  83 NE10      29.85R
G MARAIS ARPRT CLOUDY    57  54  88 SE9       29.88S
$$
MNZ029>031-032-039>041-046>048-054>057-064-200600-
   West Central Minnesota

CITY           SKY/WX    TMP DP  RH WIND       PRES   REMARKS
FERGUS FALLS   TSTM      68  68 100 S28G43    29.42R
WHEATON        CLOUDY    64  61  88 S8        29.47R
MORRIS         TSTM      64  63  94 SW17      29.53R
ALEXANDRIA     CLOUDY    72  64  76 SE23G36   29.47F
ELBOW LAKE     TSTM      64  63  96 S20G29    29.46R
WADENA         CLOUDY    72  63  73 SE32G41   29.46F
GLENWOOD       CLOUDY    72  64  78 SE26G35   29.48F
APPLETON       CLOUDY    70  61  73 W25G37    29.54R THUNDER
BENSON         CLOUDY    73  64  73 S22G32    29.46F
ORTONVILLE     TSTM      64  61  88 N5        29.50F
MADISON        TSTM      70  64  83 W18G30    29.52R
WILLMAR        FAIR      73  66  78 SE18G29   29.51F
$$
MNZ033>034-036-042>043-049>051-058-059-200600-
   Central Minnesota

CITY           SKY/WX    TMP DP  RH WIND       PRES   REMARKS
ST CLOUD       CLOUDY    72  63  73 SE21      29.59F
SAUK CENTRE    CLOUDY    70  64  79 SE18G29   29.52F
PAYNESVILLE    CLOUDY    72  64  78 SE17G26   29.54F
AITKIN         CLOUDY    70  61  73 SE16G22   29.60F
PINE RIVER     CLOUDY    66  59  77 SE18G29   29.58F
BRAINERD       CLOUDY    69  62  78 SE20G28   29.58F
STAPLES        CLOUDY    70  61  73 SE16G24   29.52F
LONG PRAIRIE   CLOUDY    70  63  78 E22G31    29.53F
LITTLE FALLS   CLOUDY    72  55  56 SE20G25   29.58S
LITCHFIELD     CLOUDY    73  64  73 SE16G23   29.56F
BUFFALO        PTCLDY    71  61  70 SE13G24   29.63R
MAPLE LAKE     MOCLDY    72  64  77 SE10G21   29.62R
HUTCHINSON     CLOUDY    72  65  80 SE16G23   29.58S
$$
MNZ037-044-045-052-053-200600-
   East Central Minnesota

CITY           SKY/WX    TMP DP  RH WIND       PRES   REMARKS
PRINCETON      CLOUDY    73  63  68 SE15G23   29.63S
MORA           CLOUDY    70  61  73 SE14G22   29.66F
CAMBRIDGE      CLOUDY    73  61  64 SE10G20   29.65F
RUSH CITY      CLOUDY    70  61  73 SE15G21   29.68S
MOOSE LAKE     CLOUDY    68  59  73 SE5       29.66F
HINCKLEY       MOCLDY    70  63  78 SE10G16   29.68F
CLOQUET        PTCLDY    63  55  77 E10G18    29.70F
MCGREGOR       CLOUDY    64  61  88 SE13      29.64F
$$
MNZ071>073-080-081-089-090-097-098-200600-
   Southwest Minnesota

CITY           SKY/WX    TMP DP  RH WIND       PRES   REMARKS
MONTEVIDEO     CLOUDY    73  66  78 S17G25    29.45F
GRANITE FALLS  CLOUDY    75  67  76 SE16G25   29.48F
CANBY          TSTM      71  62  73 W24G41    29.60R
MARSHALL       CLOUDY    75  67  76 S29G37    29.46S
REDWOOD FALLS  CLOUDY    73  65  75 S28G38    29.49F
OLIVIA         LGT RAIN  70  64  83 SE20G26   29.50F
PIPESTONE      CLOUDY    72  63  73 NW24G37   29.59R
WINDOM         CLOUDY    73  64  73 S24G39    29.53F
WORTHINGTON    CLOUDY    73  66  78 S22G32    29.51F
JACKSON        CLOUDY    73  64  73 S22G32    29.57S
TRACY          CLOUDY    75  69  81 S23G32    29.47F
SLAYTON        CLOUDY    73  66  78 SE22G32   29.50F
$$
MNZ065>067-074>077-082>085-091>093-200600-
   South Central Minnesota

CITY           SKY/WX    TMP DP  RH WIND       PRES   REMARKS
MANKATO        CLOUDY    72  64  76 S23G30    29.60S
NEW ULM        CLOUDY    73  64  73 S20G30    29.56S
ST JAMES       PTCLDY    72  64  78 SE21G30   29.56F
FAIRMONT       CLOUDY    72  66  81 S22G31    29.59R
GLENCOE        CLOUDY    73  67  82 SE14G20   29.60R
FARIBAULT      PTCLDY    72  63  73 SE18G28   29.65F
OWATONNA       CLEAR     70  63  78 SE18G26   29.66S
WASECA         PTCLDY    72  64  78 SE18G26   29.65S
ALBERT LEA     CLEAR     72  64  78 SE16G26   29.67S
$$
MNZ078>079-086>088-094>096-200600-
   Southeast Minnesota

CITY           SKY/WX    TMP DP  RH WIND       PRES   REMARKS
ROCHESTER      CLEAR     68  63  84 SE20G29   29.72F
RED WING       MOCLDY    72  61  68 SE16G26   29.69F
STANTON        CLEAR     72  63  74 SE14G24   29.65S
DODGE CENTER   CLEAR     66  63  88 SE18G26   29.70S
WINONA         CLEAR     70  61  73 SE12G18   29.75F
AUSTIN         PTCLDY    70  63  78 SE15G23   29.70F
PRESTON        PTCLDY    67  62  83 SE16G25   29.75F
$$
ABBREVIATIONS USED IN REMARKS
   TC - TEMPERATURES IN CELSIUS
  WCI - WIND CHILL INDEX
   HX - HEAT INDEX
  VSB - VISIBILITY
$$




USA.gov is the U.S. government's official web portal to all federal, state and local government web resources and services.